Regional Weather Roundup
Issued by NWS

Home | Current Version | Previous Version | Text Only | Print | Product List | Glossary Off
Versions: 1 2 3 4 5 6 7 8 9 10 11 12 13 14 15 16 17 18 19 20 21 22 23 24 25 26 27 28 29 30 31 32 33 34 35 36 37 38 39 40 41 42 43 44 45 46 47 48 49 50

000
ASUS43 KBIS 051510
RWRND

NORTH DAKOTA REGIONAL WEATHER ROUNDUP
NATIONAL WEATHER SERVICE BISMARCK ND
900 AM CST THU MAR 05 2015

NOTE: "FAIR" INDICATES FEW OR NO CLOUDS BELOW 12,000 FEET WITH NO
SIGNIFICANT WEATHER AND/OR OBSTRUCTIONS TO VISIBILITY.


NDZ001>003-009>011-017-051600-
NORTHWEST NORTH DAKOTA

CITY           SKY/WX    TMP DP  RH WIND       PRES   REMARKS
WILLISTON        N/A    N/A N/A N/A MISG      30.07S
MINOT          MOSUNNY    5  -5  63 S12       30.09F WCI -11
MINOT AFB      PTSUNNY    2  -6  69 S8        30.08F WCI -12
$$

NDZ018>021-031>035-040>046-051600-
SOUTHWEST NORTH DAKOTA

CITY           SKY/WX    TMP DP  RH WIND       PRES   REMARKS
BISMARCK       MOSUNNY    4  -2  76 S6        30.20S WCI  -7
DICKINSON      MOSUNNY   15   4  61 SW12      30.02S WCI   2
GARRISON         N/A     -1  -6  79 SE6       30.11F WCI -13
HETTINGER ARPT PTSUNNY   13   2  61 S8        30.09S WCI   2
$$

NDZ004>008-012>016-024-026-027-054-051600-
NORTHEAST NORTH DAKOTA

CITY           SKY/WX    TMP DP  RH WIND       PRES   REMARKS
GRAND FORKS    MOSUNNY   -4 -11  72 S12       30.33F WCI -22
GRND FRKS AFB  MOSUNNY    2  -9  61 S14       30.30F WCI -17
DEVILS LAKE    PTSUNNY    0  -9  65 S9        30.20S WCI -16
$$

NDZ022-023-025-028>030-036>039-047>053-051600-
SOUTHEAST NORTH DAKOTA

CITY           SKY/WX    TMP DP  RH WIND       PRES   REMARKS
FARGO          MOSUNNY    1  -9  62 S15       30.39S WCI -18
JAMESTOWN      MOSUNNY    0  -7  72 S8        30.24F WCI -14
$$




USA.gov is the U.S. government's official web portal to all federal, state and local government web resources and services.